Time,TemperatureF,DewpointF,PressureIn,WindDirection,WindDirectionDegrees,WindSpeedMPH,WindSpeedGustMPH,Humidity,HourlyPrecipIn,Conditions,Clouds,dailyrainin,SoftwareType,DateUTC
2013-01-02 00:02:00,17.0,-4.0,30.29,WSW,251,7.0,20.0,38,0.00,,,0.00,,2013-01-02 07:02:00,
2013-01-02 00:12:00,17.0,-4.0,30.29,WSW,251,7.0,20.0,38,0.00,,,0.00,,2013-01-02 07:12:00,
2013-01-02 00:22:00,16.0,-5.0,30.30,WSW,249,8.0,16.0,39,0.00,,,0.00,,2013-01-02 07:22:00,
2013-01-02 00:32:00,15.0,-4.0,30.32,WSW,256,9.0,14.0,41,0.00,,,0.00,,2013-01-02 07:32:00,
2013-01-02 00:42:00,15.0,-4.0,30.32,WSW,256,9.0,14.0,41,0.00,,,0.00,,2013-01-02 07:42:00,
2013-01-02 00:52:00,15.0,-4.0,30.32,WSW,245,3.0,12.0,41,0.00,,,0.00,,2013-01-02 07:52:00,
2013-01-02 01:02:00,15.0,-5.0,30.32,West,261,3.0,12.0,40,0.00,,,0.00,,2013-01-02 08:02:00,
2013-01-02 01:11:00,15.0,-5.0,30.32,West,261,3.0,12.0,40,0.00,,,0.00,,2013-01-02 08:11:00,
2013-01-02 01:22:00,14.0,-5.0,30.32,WSW,242,6.0,13.0,41,0.00,,,0.00,,2013-01-02 08:22:00,
2013-01-02 01:32:00,14.0,-5.0,30.32,WSW,242,4.0,7.0,42,0.00,,,0.00,,2013-01-02 08:32:00,
2013-01-02 01:42:00,14.0,-5.0,30.32,WSW,242,4.0,7.0,42,0.00,,,0.00,,2013-01-02 08:42:00,
2013-01-02 01:53:00,14.0,-5.0,30.31,WSW,239,7.0,12.0,41,0.00,,,0.00,,2013-01-02 08:53:00,
2013-01-02 02:02:00,14.0,-5.0,30.31,SW,235,2.0,8.0,41,0.00,,,0.00,,2013-01-02 09:02:00,
2013-01-02 02:12:00,14.0,-5.0,30.31,SW,235,2.0,8.0,41,0.00,,,0.00,,2013-01-02 09:12:00,
2013-01-02 02:22:00,14.0,-5.0,30.34,WNW,293,6.0,10.0,42,0.00,,,0.00,,2013-01-02 09:22:00,
2013-01-02 02:32:00,14.0,-5.0,30.34,WNW,295,3.0,12.0,41,0.00,,,0.00,,2013-01-02 09:32:00,
2013-01-02 02:43:00,14.0,-5.0,30.34,WNW,295,3.0,12.0,41,0.00,,,0.00,,2013-01-02 09:43:00,
2013-01-02 02:53:00,15.0,-5.0,30.33,WNW,285,9.0,16.0,40,0.00,,,0.00,,2013-01-02 09:53:00,
2013-01-02 03:02:00,16.0,-5.0,30.33,West,272,5.0,10.0,39,0.00,,,0.00,,2013-01-02 10:02:00,
2013-01-02 03:12:00,16.0,-5.0,30.33,WSW,252,6.0,12.0,39,0.00,,,0.00,,2013-01-02 10:12:00,
2013-01-02 03:22:00,16.0,-5.0,30.33,WSW,252,6.0,12.0,39,0.00,,,0.00,,2013-01-02 10:22:00,
2013-01-02 03:32:00,15.0,-5.0,30.33,WSW,247,7.0,10.0,40,0.00,,,0.00,,2013-01-02 10:32:00,
2013-01-02 03:42:00,15.0,-5.0,30.33,WSW,247,7.0,10.0,40,0.00,,,0.00,,2013-01-02 10:42:00,
2013-01-02 03:52:00,14.0,-5.0,30.34,SW,231,3.0,12.0,41,0.00,,,0.00,,2013-01-02 10:52:00,
2013-01-02 04:02:00,14.0,-4.0,30.34,WSW,247,7.0,10.0,43,0.00,,,0.00,,2013-01-02 11:02:00,
2013-01-02 04:12:00,14.0,-4.0,30.34,WSW,247,7.0,10.0,43,0.00,,,0.00,,2013-01-02 11:12:00,
2013-01-02 04:22:00,14.0,-4.0,30.34,SW,225,8.0,16.0,43,0.00,,,0.00,,2013-01-02 11:22:00,
2013-01-02 04:32:00,14.0,-5.0,30.34,WSW,257,7.0,17.0,42,0.00,,,0.00,,2013-01-02 11:32:00,
2013-01-02 04:42:00,14.0,-5.0,30.34,WSW,257,7.0,17.0,42,0.00,,,0.00,,2013-01-02 11:42:00,
2013-01-02 04:53:00,15.0,-4.0,30.35,West,269,3.0,14.0,41,0.00,,,0.00,,2013-01-02 11:53:00,
2013-01-02 05:02:00,14.0,-5.0,30.35,West,261,9.0,16.0,41,0.00,,,0.00,,2013-01-02 12:02:00,
2013-01-02 05:12:00,14.0,-5.0,30.35,West,261,9.0,16.0,41,0.00,,,0.00,,2013-01-02 12:12:00,
2013-01-02 05:22:00,15.0,-5.0,30.37,West,266,6.0,12.0,40,0.00,,,0.00,,2013-01-02 12:22:00,
2013-01-02 05:32:00,14.0,-6.0,30.37,WSW,241,7.0,14.0,40,0.00,,,0.00,,2013-01-02 12:32:00,
2013-01-02 05:42:00,14.0,-6.0,30.37,WSW,241,7.0,14.0,40,0.00,,,0.00,,2013-01-02 12:42:00,
2013-01-02 05:53:00,14.0,-6.0,30.36,West,268,6.0,13.0,39,0.00,,,0.00,,2013-01-02 12:53:00,
2013-01-02 06:02:00,15.0,-5.0,30.36,West,259,3.0,8.0,39,0.00,,,0.00,,2013-01-02 13:02:00,
2013-01-02 06:12:00,15.0,-5.0,30.36,West,259,3.0,8.0,39,0.00,,,0.00,,2013-01-02 13:12:00,
2013-01-02 06:22:00,14.0,-6.0,30.39,WNW,283,5.0,12.0,40,0.00,,,0.00,,2013-01-02 13:22:00,
2013-01-02 06:32:00,14.0,-5.0,30.39,WNW,282,5.0,12.0,41,0.00,,,0.00,,2013-01-02 13:32:00,
2013-01-02 06:42:00,14.0,-5.0,30.39,WNW,282,5.0,12.0,41,0.00,,,0.00,,2013-01-02 13:42:00,
2013-01-02 06:52:00,14.0,-5.0,30.40,West,269,3.0,8.0,41,0.00,,,0.00,,2013-01-02 13:52:00,
2013-01-02 07:02:00,14.0,-5.0,30.40,West,268,7.0,12.0,42,0.00,,,0.00,,2013-01-02 14:02:00,
2013-01-02 07:12:00,14.0,-5.0,30.40,West,268,7.0,12.0,42,0.00,,,0.00,,2013-01-02 14:12:00,
2013-01-02 07:22:00,14.0,-5.0,30.40,WSW,256,5.0,8.0,42,0.00,,,0.00,,2013-01-02 14:22:00,
2013-01-02 07:33:00,14.0,-4.0,30.40,WSW,247,5.0,8.0,43,0.00,,,0.00,,2013-01-02 14:33:00,
2013-01-02 07:42:00,14.0,-4.0,30.40,WSW,247,5.0,8.0,43,0.00,,,0.00,,2013-01-02 14:42:00,
2013-01-02 07:53:00,14.0,-4.0,30.41,WSW,249,3.0,10.0,43,0.00,,,0.00,,2013-01-02 14:53:00,
2013-01-02 08:02:00,13.0,-5.0,30.41,WSW,251,3.0,7.0,43,0.00,,,0.00,,2013-01-02 15:02:00,
2013-01-02 08:12:00,13.0,-5.0,30.41,WSW,251,3.0,7.0,43,0.00,,,0.00,,2013-01-02 15:12:00,
2013-01-02 08:22:00,15.0,-5.0,30.40,WSW,256,2.0,7.0,40,0.00,,,0.00,,2013-01-02 15:22:00,
2013-01-02 08:33:00,16.0,-5.0,30.40,WNW,296,5.0,8.0,38,0.00,,,0.00,,2013-01-02 15:33:00,
2013-01-02 08:42:00,16.0,-5.0,30.40,WNW,296,5.0,8.0,38,0.00,,,0.00,,2013-01-02 15:42:00,
2013-01-02 08:53:00,18.0,-6.0,30.34,WNW,292,3.0,6.0,34,0.00,,,0.00,,2013-01-02 15:53:00,
2013-01-02 09:03:00,19.0,-5.0,30.34,West,280,5.0,13.0,33,0.00,,,0.00,,2013-01-02 16:03:00,
2013-01-02 09:12:00,19.0,-5.0,30.34,West,280,5.0,13.0,33,0.00,,,0.00,,2013-01-02 16:12:00,
2013-01-02 09:22:00,20.0,-5.0,30.32,WNW,288,4.0,10.0,32,0.00,,,0.00,,2013-01-02 16:22:00,
2013-01-02 09:33:00,20.0,-5.0,30.32,West,264,7.0,12.0,32,0.00,,,0.00,,2013-01-02 16:33:00,
2013-01-02 09:42:00,20.0,-5.0,30.32,West,264,7.0,12.0,32,0.00,,,0.00,,2013-01-02 16:42:00,
2013-01-02 09:53:00,21.0,-5.0,30.30,WSW,252,7.0,13.0,31,0.00,,,0.00,,2013-01-02 16:53:00,
2013-01-02 10:03:00,20.0,-6.0,30.30,WSW,240,6.0,22.0,31,0.00,,,0.00,,2013-01-02 17:03:00,
2013-01-02 10:12:00,20.0,-6.0,30.30,WSW,240,6.0,22.0,31,0.00,,,0.00,,2013-01-02 17:12:00,
2013-01-02 10:23:00,21.0,-6.0,30.30,WSW,244,7.0,17.0,30,0.00,,,0.00,,2013-01-02 17:23:00,
2013-01-02 10:33:00,21.0,-4.0,30.30,WSW,254,10.0,18.0,32,0.00,,,0.00,,2013-01-02 17:33:00,
2013-01-02 10:43:00,21.0,-4.0,30.30,WSW,254,10.0,18.0,32,0.00,,,0.00,,2013-01-02 17:43:00,
2013-01-02 10:53:00,22.0,-4.0,30.32,West,278,8.0,17.0,31,0.00,,,0.00,,2013-01-02 17:53:00,
2013-01-02 11:02:00,22.0,-5.0,30.32,West,272,9.0,17.0,30,0.00,,,0.00,,2013-01-02 18:02:00,
2013-01-02 11:12:00,22.0,-5.0,30.32,West,272,9.0,17.0,30,0.00,,,0.00,,2013-01-02 18:12:00,
2013-01-02 11:22:00,22.0,-6.0,30.30,West,280,9.0,20.0,28,0.00,,,0.00,,2013-01-02 18:22:00,
2013-01-02 11:33:00,22.0,-6.0,30.30,West,280,9.0,20.0,28,0.00,,,0.00,,2013-01-02 18:33:00,
2013-01-02 11:42:00,22.0,-6.0,30.30,West,280,9.0,20.0,28,0.00,,,0.00,,2013-01-02 18:42:00,
2013-01-02 11:53:00,23.0,-5.0,30.32,NW,316,7.0,20.0,28,0.00,,,0.00,,2013-01-02 18:53:00,
2013-01-02 12:03:00,24.0,-6.0,30.32,West,278,5.0,14.0,26,0.00,,,0.00,,2013-01-02 19:03:00,
2013-01-02 12:12:00,24.0,-6.0,30.32,West,278,5.0,14.0,26,0.00,,,0.00,,2013-01-02 19:12:00,
2013-01-02 12:22:00,24.0,-7.0,30.29,WNW,285,7.0,13.0,25,0.00,,,0.00,,2013-01-02 19:22:00,
2013-01-02 12:32:00,24.0,-7.0,30.29,West,259,10.0,20.0,24,0.00,,,0.00,,2013-01-02 19:32:00,
2013-01-02 12:43:00,24.0,-7.0,30.29,West,259,10.0,20.0,24,0.00,,,0.00,,2013-01-02 19:43:00,
2013-01-02 12:53:00,24.0,-5.0,30.29,WSW,256,8.0,14.0,27,0.00,,,0.00,,2013-01-02 19:53:00,
2013-01-02 13:02:00,24.0,-6.0,30.29,West,262,8.0,20.0,26,0.00,,,0.00,,2013-01-02 20:02:00,
2013-01-02 13:12:00,24.0,-6.0,30.29,West,262,8.0,20.0,26,0.00,,,0.00,,2013-01-02 20:12:00,
2013-01-02 13:23:00,24.0,-6.0,30.27,West,280,10.0,17.0,26,0.00,,,0.00,,2013-01-02 20:23:00,
2013-01-02 13:33:00,24.0,-5.0,30.27,West,275,13.0,20.0,27,0.00,,,0.00,,2013-01-02 20:33:00,
2013-01-02 13:42:00,24.0,-5.0,30.27,West,275,13.0,20.0,27,0.00,,,0.00,,2013-01-02 20:42:00,
2013-01-02 13:53:00,23.0,-5.0,30.30,WSW,254,16.0,22.0,28,0.00,,,0.00,,2013-01-02 20:53:00,
2013-01-02 14:03:00,24.0,-4.0,30.30,WSW,237,5.0,18.0,28,0.00,,,0.00,,2013-01-02 21:03:00,
2013-01-02 14:12:00,24.0,-4.0,30.30,WSW,237,5.0,18.0,28,0.00,,,0.00,,2013-01-02 21:12:00,
2013-01-02 14:22:00,22.0,-5.0,30.30,West,271,10.0,18.0,29,0.00,,,0.00,,2013-01-02 21:22:00,
2013-01-02 14:32:00,22.0,-5.0,30.30,SW,228,16.0,24.0,29,0.00,,,0.00,,2013-01-02 21:32:00,
2013-01-02 14:42:00,22.0,-5.0,30.30,SW,228,16.0,24.0,29,0.00,,,0.00,,2013-01-02 21:42:00,
2013-01-02 14:53:00,22.0,-5.0,30.28,SW,233,14.0,22.0,29,0.00,,,0.00,,2013-01-02 21:53:00,
2013-01-02 15:02:00,21.0,-7.0,30.28,WSW,240,12.0,24.0,28,0.00,,,0.00,,2013-01-02 22:02:00,
2013-01-02 15:12:00,21.0,-7.0,30.28,WSW,240,12.0,24.0,28,0.00,,,0.00,,2013-01-02 22:12:00,
2013-01-02 15:22:00,22.0,-7.0,30.32,SW,217,11.0,21.0,27,0.00,,,0.00,,2013-01-02 22:22:00,
2013-01-02 15:32:00,22.0,-8.0,30.32,WSW,254,9.0,20.0,26,0.00,,,0.00,,2013-01-02 22:32:00,
2013-01-02 15:42:00,22.0,-8.0,30.32,WSW,254,9.0,20.0,26,0.00,,,0.00,,2013-01-02 22:42:00,
2013-01-02 15:53:00,22.0,-7.0,30.33,SW,218,7.0,13.0,27,0.00,,,0.00,,2013-01-02 22:53:00,
2013-01-02 16:02:00,22.0,-7.0,30.33,WSW,255,5.0,12.0,27,0.00,,,0.00,,2013-01-02 23:02:00,
2013-01-02 16:12:00,19.0,-7.0,30.36,WSW,251,3.0,12.0,31,0.00,,,0.00,,2013-01-02 23:12:00,
2013-01-02 16:23:00,19.0,-7.0,30.36,WSW,251,3.0,12.0,31,0.00,,,0.00,,2013-01-02 23:23:00,
2013-01-02 16:33:00,19.0,-9.0,30.36,WSW,255,6.0,12.0,28,0.00,,,0.00,,2013-01-02 23:33:00,
2013-01-02 16:42:00,19.0,-9.0,30.36,WSW,255,6.0,12.0,28,0.00,,,0.00,,2013-01-02 23:42:00,
2013-01-02 16:53:00,18.0,-6.0,30.39,West,261,7.0,13.0,33,0.00,,,0.00,,2013-01-02 23:53:00,
2013-01-02 17:02:00,18.0,-7.0,30.39,WSW,252,7.0,14.0,31,0.00,,,0.00,,2013-01-03 00:02:00,
2013-01-02 17:12:00,18.0,-7.0,30.39,WSW,252,7.0,14.0,31,0.00,,,0.00,,2013-01-03 00:12:00,
2013-01-02 17:22:00,17.0,-8.0,30.42,WSW,244,5.0,10.0,32,0.00,,,0.00,,2013-01-03 00:22:00,
2013-01-02 17:38:00,17.0,-6.0,30.42,WSW,237,5.0,12.0,34,0.00,,,0.00,,2013-01-03 00:38:00,
2013-01-02 17:52:00,17.0,-8.0,30.43,West,278,4.0,10.0,32,0.00,,,0.00,,2013-01-03 00:52:00,
2013-01-02 18:02:00,16.0,-9.0,30.43,West,278,2.0,5.0,32,0.00,,,0.00,,2013-01-03 01:02:00,
2013-01-02 18:12:00,16.0,-9.0,30.43,West,278,2.0,5.0,32,0.00,,,0.00,,2013-01-03 01:12:00,
2013-01-02 18:22:00,16.0,-7.0,30.43,WSW,252,7.0,10.0,34,0.00,,,0.00,,2013-01-03 01:22:00,
2013-01-02 18:32:00,16.0,-7.0,30.43,West,261,5.0,12.0,34,0.00,,,0.00,,2013-01-03 01:32:00,
2013-01-02 18:42:00,16.0,-7.0,30.43,West,261,5.0,12.0,34,0.00,,,0.00,,2013-01-03 01:42:00,
2013-01-02 18:52:00,16.0,-7.0,30.43,WSW,251,3.0,10.0,34,0.00,,,0.00,,2013-01-03 01:52:00,
2013-01-02 19:02:00,16.0,-8.0,30.43,West,273,1.0,8.0,33,0.00,,,0.00,,2013-01-03 02:02:00,
2013-01-02 19:12:00,16.0,-8.0,30.43,West,273,1.0,8.0,33,0.00,,,0.00,,2013-01-03 02:12:00,
2013-01-02 19:22:00,14.0,-9.0,30.47,West,273,1.0,5.0,35,0.00,,,0.00,,2013-01-03 02:22:00,
2013-01-02 19:33:00,14.0,-7.0,30.47,West,273,1.0,3.0,38,0.00,,,0.00,,2013-01-03 02:33:00,
2013-01-02 19:42:00,14.0,-7.0,30.47,West,273,1.0,3.0,38,0.00,,,0.00,,2013-01-03 02:42:00,
2013-01-02 19:52:00,14.0,-7.0,30.47,West,273,1.0,3.0,38,0.00,,,0.00,,2013-01-03 02:52:00,
2013-01-02 20:02:00,10.0,-8.0,30.49,West,273,1.0,2.0,42,0.00,,,0.00,,2013-01-03 03:02:00,
2013-01-02 20:12:00,10.0,-8.0,30.52,West,273,0.0,3.0,44,0.00,,,0.00,,2013-01-03 03:12:00,
2013-01-02 20:22:00,10.0,-8.0,30.52,West,273,0.0,3.0,44,0.00,,,0.00,,2013-01-03 03:22:00,
2013-01-02 20:45:00,9.0,-8.0,30.52,West,273,0.0,5.0,45,0.00,,,0.00,,2013-01-03 03:45:00,
2013-01-02 20:53:00,10.0,-8.0,30.47,West,273,2.0,5.0,43,0.00,,,0.00,,2013-01-03 03:53:00,
2013-01-02 21:02:00,9.0,-9.0,30.47,West,273,2.0,6.0,43,0.00,,,0.00,,2013-01-03 04:02:00,
2013-01-02 21:12:00,9.0,-9.0,30.47,West,273,2.0,6.0,43,0.00,,,0.00,,2013-01-03 04:12:00,
2013-01-02 21:22:00,8.0,-8.0,30.50,West,273,0.0,3.0,46,0.00,,,0.00,,2013-01-03 04:22:00,
2013-01-02 21:32:00,11.0,-8.0,30.50,West,273,3.0,5.0,42,0.00,,,0.00,,2013-01-03 04:32:00,
2013-01-02 21:42:00,11.0,-8.0,30.50,West,273,3.0,5.0,42,0.00,,,0.00,,2013-01-03 04:42:00,
2013-01-02 21:52:00,12.0,-8.0,30.47,West,273,2.0,7.0,39,0.00,,,0.00,,2013-01-03 04:52:00,
2013-01-02 22:03:00,12.0,-9.0,30.47,West,273,0.0,3.0,38,0.00,,,0.00,,2013-01-03 05:03:00,
2013-01-02 22:12:00,11.0,-8.0,30.48,West,273,0.0,2.0,41,0.00,,,0.00,,2013-01-03 05:12:00,
2013-01-02 22:22:00,11.0,-8.0,30.48,West,273,0.0,2.0,41,0.00,,,0.00,,2013-01-03 05:22:00,
2013-01-02 22:33:00,10.0,-8.0,30.48,West,273,1.0,2.0,42,0.00,,,0.00,,2013-01-03 05:33:00,
2013-01-02 22:42:00,10.0,-8.0,30.48,West,273,1.0,2.0,42,0.00,,,0.00,,2013-01-03 05:42:00,
2013-01-02 22:53:00,10.0,-8.0,30.48,West,273,1.0,3.0,44,0.00,,,0.00,,2013-01-03 05:53:00,
2013-01-02 23:02:00,8.0,-9.0,30.48,West,273,2.0,3.0,45,0.00,,,0.00,,2013-01-03 06:02:00,
2013-01-02 23:12:00,8.0,-9.0,30.48,West,273,2.0,3.0,45,0.00,,,0.00,,2013-01-03 06:12:00,
2013-01-02 23:22:00,7.0,-9.0,30.51,West,273,1.0,3.0,47,0.00,,,0.00,,2013-01-03 06:22:00,
2013-01-02 23:32:00,6.0,-9.0,30.51,West,273,1.0,5.0,50,0.00,,,0.00,,2013-01-03 06:32:00,
2013-01-02 23:42:00,6.0,-9.0,30.51,West,273,1.0,5.0,50,0.00,,,0.00,,2013-01-03 06:42:00,
2013-01-02 23:52:00,5.0,-10.0,30.51,West,273,2.0,3.0,50,0.00,,,0.00,,2013-01-03 06:52:00,